Theta_e
304 303 302 303 303 303 302 302 302 303 302 302 302 301 301 301 302 303 305 320 317 316 317 318 319 319 320 321 322 322 323 323 324 324 324 325 326 326 326 325 326 327 325
305 305 303 303 302 302 302 302 302 302 302 302 303 303 303 303 303 303 305 311 320 318 317 318 318 318 319 320 320 321 322 322 323 324 325 325 326 326 325 325 326 325 326
306 306 304 303 303 303 303 303 302 303 302 305 304 304 304 303 304 303 304 307 313 321 317 317 318 317 318 318 320 320 321 321 322 323 323 324 324 324 325 325 325 326 326
306 305 304 304 304 304 303 303 303 303 303 303 303 304 303 304 304 304 304 304 306 308 316 317 316 316 316 317 318 319 320 321 321 321 322 323 323 323 324 324 324 325 325
308 306 305 305 305 305 304 304 304 303 302 303 305 303 302 303 303 305 304 305 305 305 306 317 316 314 314 315 315 317 318 319 320 321 321 321 322 323 323 323 323 323 324
308 307 307 306 305 304 304 304 303 303 303 303 307 306 303 302 302 302 303 305 304 306 305 306 307 309 317 316 315 316 317 318 319 320 320 321 321 322 323 323 322 323 323
309 307 307 306 305 304 304 304 304 303 303 304 302 305 301 300 302 302 303 302 304 305 305 305 306 305 310 319 316 314 315 317 318 319 320 320 321 322 322 322 322 322 322
310 308 307 306 305 304 304 304 304 302 302 304 302 301 298 300 299 301 302 303 302 304 305 305 305 304 304 306 310 315 314 315 317 318 319 320 321 321 321 321 321 321 320
310 309 308 307 306 305 304 304 304 303 302 304 303 303 298 298 298 301 300 302 301 302 302 305 305 305 304 305 310 313 314 313 314 316 318 319 319 320 320 320 321 321 320
310 310 308 307 306 305 305 304 306 304 303 303 304 304 302 302 298 299 302 302 301 301 301 303 305 305 304 304 308 311 314 312 313 315 316 317 318 319 319 319 319 320 320
310 310 308 306 306 306 305 306 306 305 304 303 303 302 300 300 298 299 298 300 301 301 301 303 304 304 304 304 305 309 315 312 313 314 314 315 317 317 318 318 318 318 318
311 310 310 308 307 306 306 306 306 305 305 304 304 304 302 301 299 297 296 298 299 302 303 304 303 304 304 304 309 313 314 313 313 314 313 314 315 316 316 317 317 317 317
308 310 309 308 308 308 307 306 306 305 305 304 304 304 305 304 304 301 299 298 299 301 302 303 304 304 306 304 305 311 314 315 315 315 314 313 313 313 314 315 316 316 316
312 311 310 309 309 308 308 307 306 306 304 305 303 303 304 306 306 304 302 300 298 299 299 301 303 303 304 303 306 315 306 315 316 317 314 312 311 312 312 313 314 313 313
313 310 311 310 309 309 308 308 308 307 306 305 305 304 305 305 305 305 304 302 300 296 297 301 301 302 303 304 306 306 304 310 315 316 315 313 311 311 310 310 312 311 311
312 312 311 311 310 309 309 308 308 307 306 306 307 305 306 306 306 305 304 303 302 300 297 300 301 301 303 305 306 305 304 310 315 316 315 314 311 309 308 309 309 308 307
313 312 312 311 310 309 309 308 309 308 307 307 308 307 307 307 307 306 304 303 302 301 300 300 301 302 301 301 303 304 304 303 303 312 314 314 311 308 307 308 307 305 305
314 314 312 311 311 310 309 308 308 308 307 307 307 308 308 308 307 307 306 305 304 302 302 300 300 300 300 300 301 301 304 305 302 308 313 314 312 309 308 308 307 304 303
314 314 315 311 311 310 309 308 308 308 307 308 308 308 308 307 307 307 306 306 305 305 303 299 300 300 300 300 300 301 301 301 302 307 309 309 310 311 309 308 307 305 301
313 313 314 315 312 311 310 309 308 307 307 308 309 309 309 308 309 307 306 306 305 304 302 302 298 299 298 299 299 298 298 298 298 302 304 304 305 303 301 302 305 302 300
311 313 312 313 314 311 311 309 309 308 307 307 308 310 310 311 313 312 308 307 306 304 303 302 301 297 297 297 297 297 297 296 295 296 294 295 293 292 292 298 302 301 301
308 308 310 311 312 312 313 313 310 308 307 307 307 308 310 312 313 315 314 313 309 305 303 302 301 300 300 300 297 296 295 293 292 293 291 291 292 290 291 292 299 300 300
305 306 307 308 309 311 314 315 313 310 308 307 307 308 308 310 311 310 315 315 313 313 311 305 303 301 300 301 299 294 292 292 292 291 291 288 289 288 291 295 298 299 299
303 304 306 306 307 308 313 314 314 311 309 308 307 308 308 309 309 310 309 310 310 309 310 308 305 305 304 302 303 301 297 293 291 291 290 285 287 287 289 289 296 298 298
303 303 305 306 305 307 311 313 312 310 309 308 308 308 308 308 311 312 308 307 308 308 311 312 311 309 309 308 304 298 293 291 284 284 289 287 284 285 286 286 289 296 294
304 306 306 305 308 307 310 311 311 309 307 308 308 308 310 309 312 312 309 307 305 306 306 306 307 307 309 308 307 304 297 292 286 284 288 287 284 284 282 284 285 286 286
Wind_Speed
3 3 4 4 4 3 4 2 2 2 2 3 2 3 3 3 4 3 3 9 7 5 5 4 3 1 1 1 2 2 3 3 4 4 5 7 7 9 9 7 8 8 7
4 4 4 4 3 3 2 2 2 2 3 2 4 3 4 4 4 5 4 4 8 6 6 5 3 2 1 2 3 3 4 5 6 6 7 8 9 9 9 9 10 11 10
6 5 4 4 4 3 4 1 2 2 3 3 4 4 4 5 4 4 4 4 4 6 4 5 4 2 1 1 3 4 4 5 6 6 7 8 9 10 10 11 12 12 11
7 5 4 4 4 4 3 1 2 2 2 2 3 4 2 2 2 4 4 4 3 3 3 5 4 3 1 1 2 4 4 5 6 7 8 9 9 10 10 10 11 11 11
7 6 4 4 5 4 3 3 2 2 2 2 3 2 2 2 3 3 4 4 4 4 3 6 5 3 2 1 2 3 4 4 5 7 7 7 8 8 9 9 10 10 11
7 6 4 5 5 4 3 2 4 2 3 3 3 3 2 2 3 3 3 3 4 4 4 4 2 3 5 4 2 3 4 4 5 6 6 7 8 9 9 10 10 11 11
8 7 5 5 5 5 6 5 3 4 2 2 2 3 2 3 3 4 3 3 4 5 4 4 3 2 3 6 5 2 4 5 6 6 6 7 8 9 9 10 10 11 12
8 7 7 6 6 4 6 5 4 2 2 3 3 1 1 3 3 4 3 4 6 4 4 4 4 5 4 3 5 6 4 4 6 5 6 7 8 8 9 10 10 11 10
8 8 8 7 6 5 5 5 5 6 4 2 6 4 2 4 1 1 5 4 5 4 4 3 5 5 5 4 5 6 5 2 3 4 5 6 7 8 9 10 10 11 11
8 8 8 8 7 5 6 6 6 5 4 4 1 4 2 3 3 1 2 4 4 5 6 4 4 4 5 5 7 8 6 1 2 3 5 6 7 8 9 9 10 10 10
8 8 9 8 8 6 6 7 6 7 5 4 4 2 2 1 1 2 3 3 2 4 5 5 5 4 5 5 4 5 7 2 1 2 4 6 7 8 8 9 9 10 10
6 8 10 9 9 8 8 8 7 8 7 5 4 4 4 4 4 3 2 3 3 4 4 4 5 5 5 5 6 10 7 3 3 4 4 5 6 8 8 9 9 10 11
4 10 10 9 8 10 9 7 8 8 8 6 7 6 4 4 3 3 3 2 3 3 2 3 5 5 5 5 5 8 6 5 6 8 6 5 5 7 8 8 9 10 11
9 8 10 10 12 10 10 9 5 7 7 8 9 7 5 5 4 4 4 4 2 2 2 6 4 5 5 5 7 11 5 7 8 8 8 5 4 6 8 8 9 9 10
8 8 12 13 12 12 12 11 10 10 7 9 9 8 7 5 5 5 4 4 5 3 4 4 4 5 5 5 7 6 6 7 8 9 10 7 5 7 8 8 7 8 9
10 10 12 12 12 13 12 11 10 9 11 8 8 9 9 6 6 5 5 5 4 5 4 4 5 4 6 5 7 6 6 8 9 9 8 9 8 8 8 6 6 8 9
10 11 12 13 13 13 13 13 14 12 14 12 11 11 13 9 8 6 5 4 5 5 7 4 3 5 5 6 4 4 5 5 4 8 8 10 9 7 5 6 8 9 8
10 12 11 12 14 14 14 15 16 15 16 15 14 13 14 8 12 9 8 11 9 8 7 11 3 4 6 6 5 5 5 4 5 7 9 11 10 9 8 9 9 7 2
14 13 14 13 14 15 14 15 16 15 15 17 15 15 15 13 13 11 12 11 10 8 8 5 6 3 5 2 3 3 4 4 3 7 6 5 7 10 8 8 8 6 5
14 13 14 16 14 14 15 14 15 15 16 15 15 15 16 17 18 16 14 15 11 10 7 8 4 5 3 4 3 4 4 3 4 3 5 7 7 5 4 9 9 9 5
12 13 13 14 15 13 12 15 15 16 16 16 15 15 16 19 25 20 13 15 14 12 9 9 9 4 5 4 7 4 5 3 3 4 2 2 3 2 4 5 6 7 5
10 9 12 14 15 12 19 21 19 15 16 17 17 16 17 20 21 27 27 24 20 16 15 11 11 10 14 10 5 5 5 4 4 3 4 3 3 3 3 3 6 5 6
9 10 11 11 13 15 21 22 24 17 16 17 18 16 14 14 19 16 25 27 23 26 22 16 15 16 10 14 9 6 6 5 5 4 4 3 2 3 3 3 6 7 8
7 8 10 11 11 11 18 22 24 19 18 19 18 18 18 17 17 17 16 18 20 20 20 16 18 16 13 11 14 11 10 5 2 2 3 3 1 3 2 3 7 6 5
9 7 8 10 11 14 15 19 18 17 18 19 17 18 19 19 20 24 19 18 18 18 19 30 23 17 18 17 14 9 6 5 3 4 4 4 3 2 1 1 0 8 5
12 9 9 8 13 13 16 18 16 12 16 13 15 18 23 22 22 23 21 18 20 17 17 13 14 16 18 16 24 15 11 8 4 1 6 7 4 4 2 2 1 0 1
Wind_Direction
187 185 196 187 201 191 209 212 245 305 317 301 264 235 255 225 221 178 189 196 190 197 199 206 209 221 259 301 340 345 354 346 345 341 335 331 331 332 328 328 316 317 314
200 196 198 199 200 199 194 208 212 234 277 303 304 266 250 241 213 182 186 203 196 205 203 207 209 220 288 323 328 339 351 345 343 342 338 333 329 328 327 321 321 329 318
208 197 195 196 199 195 186 198 299 318 294 304 281 291 274 240 210 181 165 187 207 209 204 205 208 199 259 325 332 348 344 342 343 343 341 340 335 335 333 329 330 326 319
200 198 189 196 196 165 172 172 241 267 272 290 294 289 304 200 177 148 145 152 164 187 208 196 195 194 234 318 336 348 344 345 347 351 349 347 342 339 335 332 327 322 321
198 179 186 193 180 174 174 196 229 195 237 287 279 296 293 171 159 143 149 152 168 157 184 211 183 182 195 181 11 9 11 2 2 7 6 359 355 351 343 339 338 333 329
191 181 183 200 177 174 193 198 212 227 206 225 292 314 284 223 156 172 190 167 180 172 176 188 173 216 200 195 109 69 36 31 28 19 6 358 356 351 346 347 345 340 340
188 181 189 197 183 184 196 195 194 209 278 213 47 339 311 259 218 209 198 188 195 202 208 191 187 203 199 197 171 108 75 36 23 10 357 352 351 346 346 346 342 340 343
188 183 183 197 193 181 200 202 182 184 237 192 156 111 258 325 311 237 215 206 206 204 220 217 190 184 173 169 178 158 119 35 7 1 355 352 348 348 345 342 342 339 342
190 187 189 188 197 190 198 198 185 181 203 265 216 157 110 225 191 246 235 224 198 209 223 207 206 170 164 157 164 159 142 31 354 354 354 349 347 348 343 344 343 339 335
195 191 191 191 195 188 201 203 196 186 153 212 279 225 222 156 176 302 290 249 220 211 217 220 212 184 169 157 173 175 177 169 351 346 347 344 346 341 342 345 342 337 335
203 197 195 194 201 197 202 197 193 198 187 175 191 175 217 273 196 145 227 266 296 239 226 211 196 188 181 165 160 185 182 190 300 304 330 336 335 336 341 343 341 337 335
212 208 200 201 203 202 203 206 204 196 199 200 192 205 182 174 198 179 211 239 219 254 220 210 197 197 186 175 185 192 194 213 262 254 284 315 326 330 335 337 336 335 334
208 215 202 205 208 212 209 200 203 201 198 200 201 215 210 209 164 172 150 220 234 265 255 225 210 197 183 182 191 185 205 234 241 240 252 296 315 322 327 327 331 331 328
218 209 206 207 211 206 209 205 204 208 196 205 206 209 209 217 195 181 173 154 277 283 255 229 217 206 187 184 195 199 209 229 250 222 245 254 290 308 315 320 325 325 323
218 206 207 211 212 210 208 207 212 213 199 205 212 206 212 217 211 207 188 172 161 228 266 245 198 205 187 182 202 193 202 226 225 224 242 233 255 289 309 305 311 313 320
219 210 209 213 213 213 212 207 214 212 205 209 207 201 211 213 213 207 203 197 187 169 241 216 233 201 190 198 206 194 208 221 214 241 238 219 238 277 299 290 300 307 314
216 221 214 214 213 215 212 211 218 213 214 216 215 207 217 198 214 208 200 197 201 171 222 282 237 212 189 193 204 202 203 203 230 242 237 209 221 254 259 258 285 295 298
220 222 218 216 218 217 214 215 217 215 214 216 215 212 218 200 214 205 202 213 211 200 201 230 230 220 203 209 207 194 207 213 209 235 239 217 226 226 233 252 278 277 275
227 225 223 218 219 218 216 218 221 222 221 222 215 210 213 199 211 206 207 212 211 208 208 183 222 211 209 181 197 216 204 224 233 230 217 239 253 224 231 262 270 198 196
225 226 224 226 222 218 216 218 220 223 227 227 225 218 213 204 213 206 205 211 205 203 194 211 196 203 189 212 175 182 232 214 228 238 236 252 232 202 278 279 268 173 207
227 227 225 226 227 219 216 217 219 223 227 231 226 222 220 217 215 209 201 210 201 202 197 208 216 185 196 191 197 183 194 181 246 214 225 227 192 235 282 275 182 187 234
245 226 226 226 225 225 226 219 218 224 226 228 230 229 228 223 222 218 213 212 202 196 203 201 212 215 217 207 165 174 157 164 237 202 170 244 175 238 243 207 225 254 277
266 251 240 226 230 231 229 224 219 228 229 228 229 230 230 229 219 219 222 220 211 211 207 202 211 211 208 200 161 173 175 172 194 193 136 240 191 221 221 217 262 273 261
274 260 254 244 237 234 228 228 224 227 233 233 231 229 229 227 220 210 216 220 219 214 211 213 215 216 214 176 188 187 178 158 81 170 138 210 222 231 217 245 273 245 167
296 266 253 255 241 249 234 228 224 235 237 237 234 231 231 232 225 207 212 218 221 222 216 220 217 214 194 182 168 134 161 132 224 227 195 149 211 227 227 235 19 102 83
299 291 280 261 254 255 247 234 223 237 243 242 239 239 232 232 226 213 216 219 227 219 212 208 213 206 197 192 177 189 163 171 144 161 207 168 163 163 291 239 222 167 79